Regional Weather Roundup
Issued by NWS

Home | Current Version | Previous Version | Graphics & Text | Print | Product List | Glossary On
Versions: 1 2 3 4 5 6 7 8 9 10 11 12 13 14 15 16 17 18 19 20 21 22 23 24 25 26 27 28 29 30 31 32 33 34 35 36 37 38 39 40 41 42 43 44 45 46 47 48 49 50
000
ASUS43 KLMK 282010
RWRKY
KENTUCKY REGIONAL WEATHER ROUNDUP
NATIONAL WEATHER SERVICE LOUISVILLE KY
300 PM EST SUN DEC 28 2014

NOTE "FAIR" INDICATES FEW OR NO CLOUDS BELOW 12,000 FEET
WITH NO SIGNIFICANT WEATHER AND/OR OBSTRUCTIONS TO VISIBILITY.

KYZ001>023-026-027-061>063-070>075-282100-
WESTERN AND SOUTH CENTRAL KENTUCKY

CITY           SKY/WX    TMP DP  RH WIND       PRES   REMARKS
PADUCAH        CLOUDY    36  30  79 N7        30.17F WCI  30
HENDERSON      CLOUDY    34  27  75 N5        30.18S WCI  30
OWENSBORO      CLOUDY    36  30  79 N6        30.18R WCI  31
HOPKINSVILLE   CLOUDY    36  34  92 N6        30.15F WCI  32
BOWLING GREEN  CLOUDY    38  34  85 NW8       30.15R WCI  32
GLASGOW        CLOUDY    38  38 100 N3        30.13R FOG
$$

KYZ024-025-028>034-038-045-046-053-282100-
NORTH CENTRAL KENTUCKY

CITY           SKY/WX    TMP DP  RH WIND       PRES   REMARKS
LOUISVILLE/SDF CLOUDY    37  31  78 N10       30.15S WCI  30
LOUISVILLE/LOU CLOUDY    36  30  79 N8        30.16S WCI  30
FORT KNOX      CLOUDY    35  33  91 N8        30.13R WCI  28
$$

KYZ035>037-039>044-047>052-055>060-089>105-282100-
NORTHEAST KENTUCKY

CITY           SKY/WX    TMP DP  RH WIND       PRES   REMARKS
LEXINGTON      CLOUDY    36  35  96 N9        30.11S FOG     WCI  29
COVINGTON      CLOUDY    37  27  67 NW7       30.13R WCI  32
FRANKFORT      CLOUDY    36  33  89 N3        30.11F
$$

KYZ054-064>069-076>088-106>120-282100-
SOUTHEAST KENTUCKY

CITY           SKY/WX    TMP DP  RH WIND       PRES   REMARKS
JACKSON        LGT RAIN  42  40  92 CALM      30.06F FOG
LONDON         LGT RAIN  44  39  82 NE5       30.07F
SOMERSET       CLOUDY    41  41 100 N3        30.11R
MIDDLESBORO    CLOUDY    50  48  93 CALM      30.07S
MONTICELLO     CLOUDY    42  41  97 NW6       30.12R
$$




USA.gov is the U.S. government's official web portal to all federal, state and local government web resources and services.